User: anonymous   Login
Location: Stull Observatory
(42.2506°N, 77.7903°W)
Time: 02:12:52
(UTC-04:00)
Language:

Abrixas rocket - Orbit

View from above orbital plane
View from above orbital plane
View from above satellite
View from above satellite

Ground track
Ground track

The orbit data is extracted from the following two-line orbital elements,

1 25723U 99022C   17081.92113420 +.00009913 +00000-0 +16313-3 0  9999
2 25723 048.4162 266.9823 0010450 332.8896 027.1501 15.52852211992807
Epoch (UTC): 22 March 2017 22:06:25
Eccentricity: 0.0010450
inclination: 48.4162°
perigee height: 401 km
apogee height: 415 km
right ascension of ascending node: 266.9823°
argument of perigee: 332.8896°
revolutions per day: 15.52852211
mean anomaly at epoch: 27.1501°
orbit number at epoch: 99280

The dashed part of the orbit path shows where the satellite is in the earth's shadow,  

DLR